Location: Vale
(35.4830°N, 81.3830°W)
Time: 00:43:51
(UTC-04:00)

SR - All Passes

Search period start: 03 September 2014 00:00
Search period end: 13 September 2014 00:00
Orbit: 575 x 890 km, 66.7° (Epoch: 02 September)

Date Brightness Start Highest point End Pass type
(mag) Time Alt. Az. Time Alt. Az. Time Alt. Az.
03 Sep - 02:22:43 10° SSE 02:27:03 25° ESE 02:31:38 10° NE visible
03 Sep - 04:03:42 10° SW 04:08:56 43° WNW 04:14:31 10° NNE visible
03 Sep - 11:08:26 10° NNE 11:10:57 13° NE 11:13:24 10° ENE daylight
03 Sep - 12:48:22 10° NNW 12:54:12 78° ENE 12:59:34 10° SSE daylight
03 Sep - 14:33:31 10° W 14:35:30 12° W 14:37:26 10° WSW daylight
04 Sep - 01:37:31 10° ESE 01:39:18 12° E 01:41:07 10° E visible
04 Sep - 03:15:07 10° SSW 03:20:35 82° WNW 03:26:29 10° NNE visible
04 Sep - 05:00:59 10° WNW 05:03:47 14° NW 05:06:38 10° NNW visible
04 Sep - 12:00:22 10° NNW 12:05:50 41° ENE 12:10:55 10° SE daylight
04 Sep - 13:43:10 10° NW 13:47:45 25° WSW 13:52:03 10° SSW daylight
05 Sep - 02:27:12 10° S 02:32:27 51° ESE 02:38:06 10° NE visible
05 Sep - 04:10:32 10° WSW 04:15:00 24° NW 04:19:40 10° N visible
05 Sep - 11:12:44 10° N 11:17:15 23° NE 11:21:32 10° ESE daylight
05 Sep - 12:54:15 10° NW 12:59:49 52° WSW 13:04:56 10° S daylight
06 Sep - 01:40:07 10° SSE 01:44:31 25° ESE 01:49:11 10° NE visible
06 Sep - 03:21:11 10° SW 03:26:26 42° WNW 03:32:01 10° NNE visible
06 Sep - 10:25:52 10° NNE 10:28:27 13° NE 10:30:58 10° ENE daylight
06 Sep - 12:05:52 10° NNW 12:11:41 80° ENE 12:17:01 10° SSE daylight
06 Sep - 13:51:15 10° W 13:52:57 11° W 13:54:37 10° WSW daylight
07 Sep - 00:54:44 10° ESE 00:56:45 12° E 00:58:49 10° E night (unlit)
07 Sep - 02:32:34 10° SSW 02:38:04 80° WNW 02:43:59 10° NNE visible
07 Sep - 04:18:33 10° WNW 04:21:17 13° NW 04:24:05 10° NNW visible
07 Sep - 11:17:51 10° NNW 11:23:19 41° ENE 11:28:24 10° SE daylight
07 Sep - 13:00:43 10° NW 13:05:12 25° WSW 13:09:26 10° SSW daylight
08 Sep - 01:44:38 10° S 01:49:56 52° ESE 01:55:37 10° NE visible
08 Sep - 03:28:02 10° WSW 03:32:30 23° NW 03:37:08 10° N visible
08 Sep - 10:30:12 10° N 10:34:44 23° NE 10:39:02 10° ESE daylight
08 Sep - 12:11:46 10° NW 12:17:17 50° WSW 12:22:21 10° S daylight
09 Sep - 00:57:30 10° SSE 01:01:59 26° ESE 01:06:43 10° NE visible
09 Sep - 02:38:39 10° SW 02:43:55 41° WNW 02:49:30 10° NNE visible
09 Sep - 09:43:18 10° NNE 09:45:57 13° NE 09:48:30 10° ENE daylight
09 Sep - 11:23:22 10° NNW 11:29:09 82° ENE 11:34:27 10° SSE daylight
09 Sep - 13:09:01 10° W 13:10:24 11° W 13:11:45 10° WSW daylight
10 Sep - 00:11:58 10° SE 00:14:12 13° E 00:16:30 10° ENE night (unlit)
10 Sep - 01:50:01 10° SSW 01:55:33 79° WNW 02:01:29 10° NNE visible
10 Sep - 03:36:07 10° WNW 03:38:47 13° NW 03:41:30 10° NNW visible
10 Sep - 10:35:20 10° NNW 10:40:48 42° ENE 10:45:51 10° SE daylight
10 Sep - 12:18:15 10° NW 12:22:39 24° WSW 12:26:48 10° SSW daylight
11 Sep - 01:02:03 10° S 01:07:24 54° ESE 01:13:07 10° NE visible
11 Sep - 02:45:32 10° WSW 02:49:59 23° NW 02:54:36 10° N visible
11 Sep - 09:47:40 10° N 09:52:13 23° NE 09:56:31 10° ESE daylight
11 Sep - 11:29:16 10° NW 11:34:44 49° WSW 11:39:46 10° S daylight
12 Sep - 00:14:52 10° SSE 00:19:26 27° ESE 00:24:14 10° NE night (unlit)
12 Sep - 01:56:07 10° SW 02:01:24 41° WNW 02:06:58 10° NNE visible
12 Sep - 09:00:44 10° NNE 09:03:25 13° NE 09:06:02 10° ENE daylight
12 Sep - 10:40:51 10° NNW 10:46:37 83° ENE 10:51:53 10° SSE daylight
12 Sep - 12:26:53 10° W 12:27:50 10° W 12:28:46 10° WSW daylight
12 Sep - 23:29:13 10° SE 23:31:39 13° E 23:34:08 10° ENE night (unlit)
